Fairbanks, AK

4:18 AM AKDT on July 29, 2017 (GMT -0800)
Fairbanks International

Weather History for PAFA - March, 2011

Change the Weather History Date:

Friday, March 25, 2011

  Actual Average Record
Temperature  
Mean Temperature 19 °F 16 °F  
Max Temperature 37 °F 30 °F 51 °F (2016)
Min Temperature 1 °F 3 °F -39 °F (1935)
Degree Days  
Heating Degree Days 46 49  
Month to date heating degree days 1511 1384  
Since 1 July heating degree days 11801 11774  
Cooling Degree Days 0 0  
Month to date cooling degree days 0 0  
Year to date cooling degree days 0 0  
Moisture  
Dew Point 9 °F    
Average Humidity 66    
Maximum Humidity 88    
Minimum Humidity 40    
Precipitation  
Precipitation 0.00 in 0.01 in 0.87 in (1963)
Month to date precipitation 0.00 0.21  
Year to date precipitation 1.83 1.21  
Snow  
Snow 0.00 in 0.20 in 12.60 in (1963)
Month to date snowfall 0.0 4.1  
Since 1 July snowfall 56.8 60.4  
Snow Depth 20.00 in    
Sea Level Pressure  
Sea Level Pressure 29.65 in    
Wind  
Wind Speed 2 mph (NE)    
Max Wind Speed 6 mph    
Max Gust Speed -    
Visibility 10 miles    
Events      
T = Trace of Precipitation, MM = Missing Value Source: NWS Daily Summary

Daily Weather History Graph

Daily Weather History Graph

Search for Another Location

Airport or City:

Trip Planner

Search our weather history database for the weather conditions in past years. The results will help you decide how hot, cold, wet, or windy it might be!

Date:

Astronomy

Mar. 25, 2011 Rise Set
Actual Time 7:33 AM AKDT 8:22 PM AKDT
Civil Twilight 6:44 AM AKDT 9:12 PM AKDT
Nautical Twilight 5:42 AM AKDT 10:15 PM AKDT
Astronomical Twilight 4:27 AM AKDT 11:31 PM AKDT
Moon 5:52 AM AKDT (3/25) 8:38 AM AKDT (3/25)
Length of Visible Light 14h 28m
Length of Day
12h 48m
Waning Gibbous, 57% of the Moon is Illuminated
Mar 25
Waning Gibbous
Mar 26
Last Quarter
Apr 3
New
Apr 11
First Quarter
Apr 17
Full

Hourly Weather History & Observations

Time (AKDT) Temp. Windchill Dew Point Humidity Pressure Visibility Wind Dir Wind Speed Gust Speed Precip Events Conditions
12:53 AM 15.1 °F 9.4 °F 9.0 °F 77% 29.65 in 10.0 mi NE 3.5 mph - N/A   Mostly Cloudy
1:53 AM 10.9 °F 4.7 °F 6.1 °F 81% 29.65 in 10.0 mi NNE 3.5 mph - N/A   Mostly Cloudy
2:53 AM 10.0 °F 1.8 °F 3.9 °F 76% 29.65 in 10.0 mi NE 4.6 mph - N/A   Scattered Clouds
3:53 AM 9.0 °F 0.6 °F 3.9 °F 80% 29.64 in 10.0 mi NE 4.6 mph - N/A   Scattered Clouds
4:53 AM 7.0 °F - 3.0 °F 84% 29.65 in 10.0 mi Calm Calm - N/A   Scattered Clouds
5:53 AM 5.0 °F - 1.0 °F 84% 29.65 in 10.0 mi Calm Calm - N/A   Scattered Clouds
6:53 AM 6.1 °F - 1.9 °F 83% 29.66 in 10.0 mi Calm Calm - N/A   Scattered Clouds
7:53 AM 3.9 °F -5.3 °F 1.0 °F 88% 29.67 in 10.0 mi NE 4.6 mph - N/A   Scattered Clouds
8:53 AM 6.1 °F -2.8 °F 3.0 °F 87% 29.68 in 10.0 mi NE 4.6 mph - N/A   Scattered Clouds
9:53 AM 12.9 °F - 7.0 °F 77% 29.68 in 10.0 mi Calm Calm - N/A   Scattered Clouds
10:53 AM 19.0 °F - 10.0 °F 68% 29.68 in 10.0 mi Calm Calm - N/A   Scattered Clouds
11:53 AM 25.0 °F - 10.0 °F 53% 29.68 in 10.0 mi Calm Calm - N/A   Scattered Clouds
12:53 PM 32.0 °F - 10.9 °F 42% 29.67 in 10.0 mi Calm Calm - N/A   Scattered Clouds
1:53 PM 30.9 °F - 14.0 °F 50% 29.66 in 10.0 mi Calm Calm - N/A   Scattered Clouds
2:53 PM 34.0 °F - 12.0 °F 40% 29.65 in 10.0 mi Calm Calm - N/A   Scattered Clouds
3:53 PM 35.1 °F - 14.0 °F 42% 29.64 in 10.0 mi Calm Calm - N/A   Scattered Clouds
4:53 PM 36.0 °F - 14.0 °F 41% 29.63 in 10.0 mi Calm Calm - N/A   Scattered Clouds
5:53 PM 34.0 °F - 16.0 °F 48% 29.62 in 10.0 mi Calm Calm - N/A   Mostly Cloudy
6:53 PM 35.1 °F - 15.1 °F 44% 29.62 in 10.0 mi Calm Calm - N/A   Mostly Cloudy
7:53 PM 32.0 °F 26.4 °F 16.0 °F 52% 29.62 in 10.0 mi SSW 5.8 mph - N/A   Mostly Cloudy
8:53 PM 26.1 °F - 15.1 °F 63% 29.62 in 10.0 mi Calm Calm - N/A   Mostly Cloudy
9:53 PM 23.0 °F - 14.0 °F 68% 29.62 in 10.0 mi Calm Calm - N/A   Mostly Cloudy
10:53 PM 18.0 °F - 12.0 °F 78% 29.62 in 10.0 mi Calm Calm - N/A   Mostly Cloudy
11:53 PM 15.1 °F - 10.9 °F 84% 29.62 in 10.0 mi Calm Calm - N/A   Mostly Cloudy